FENGYUN 1C DEB, 35109

Orbit data source: Space-Track

FENGYUN 1C DEB, 35109 is space debris in SSO originally from a launch on Mon, 10 May 1999 UTC launched from the Taiyaun Space Center, China (TSC). Fengyun 1C debris stems from the Chinese weather satellite Fengyun-1C, which was intentionally destroyed by a Chinese anti-satellite missile in 2007. This event dramatically increased the amount of space debris, with thousands of trackable fragments posing hazards to satellites and human spaceflight. The Fengyun 1C debris cloud has become a focal point in discussions about space sustainability and the need for international regulations to prevent the creation of new debris.

Loading next visibility...
Identifier
35109, 1999-025DKM
Orbit
SSO
Country
Flag of CNCN / PRC
Related business
Manufacturer
Unknown
Mission
Spacecraft
Bus & Motor
Unknown
Mass
Unknown
Launch date (UTC)
1999-05-10 (27 years ago)
Launch vehicle
Unknown
Launch site
Taiyaun Space Center, China (TSC)
Object type
Payload
Rocket body
Debris
Shape & HBR
Unknown shape, 0.1 m
Radar Cross Section
Small (<0.1 m²)

Expand to show TLE details & history
Last TLE update: 2 days ago

TLE from 2 days ago
0 FENGYUN 1C DEB
1 35109U 99025DKM 26207.93946614  .00000522  00000-0  23041-3 0  9994
2 35109  98.6311 196.9917 0153461  99.2945 262.5623 14.21149442673721
Epoch: 2026-07-26T22:32Z
TLE epoch observation values (Epoch: 2026-07-26T22:32:49.874Z)
Latitude
Longitude
-85.84631°
Altitude
840.355 km
Speed
7.424 km/s
True Right ascension
13h 07m 58s
True Declination
0° 00' 00"
Sunlit
Object was in daylight at epoch
Visualization orbit readout
Latitude
Unknown
Longitude
Unknown
Altitude
Unknown
Speed
Unknown
Apparent Right ascension
Unknown
Apparent Declination
Unknown
Sunlit
N/A
Visualization observer readout
Local Sidereal Time
09:46:11
Azimuth
Unknown
Elevation
Unknown
Doppler factor
Unknown
Orbital elements
Apogee altitude
929.063 km
Perigee altitude
708.178 km
Semi-major axis
7,196.757 km
Eccentricity
0.01535
Inclination
98.6311°
RAAN
196.9917°
Arg. of periapsis
99.2945°
True anomaly
260.82315°
Mean anomaly
262.5623°
Eccentric anomaly
261.69226°
Mean motion
3.55499 °/min
Orbital period
101.27 mins
BSTAR
0.00023041
Loading maneuver chart data...
Computing Atmospheric mass density...

Documentation

Showing up to 5 results
|